GFSFLT1_700_rhum_000.txt.gz
RH
51 53 59 65 69 79 77 85 98 99 96 86 74 71 77 86 96 100 98 91 93 95 96 76 65 64 63 58 44 35 35 34
42 44 52 58 74 88 92 95 96 89 80 73 68 82 93 100 99 86 80 80 70 63 64 65 62 51 42 38 35 40 46 45
34 40 59 68 76 73 76 82 85 72 65 85 99 98 93 85 69 64 60 50 49 47 46 48 45 41 36 37 48 61 65 62
49 48 53 52 50 44 46 54 55 64 70 67 71 62 55 50 49 47 46 45 44 45 42 38 27 40 54 71 67 88 89 73
43 26 25 27 32 37 48 56 64 65 60 62 61 56 48 46 46 46 49 52 58 52 43 35 51 81 98 94 66 50 54 50
32 37 44 43 41 40 44 51 59 54 46 44 41 42 44 51 56 47 46 50 55 53 45 69 63 97 73 33 37 52 72 67
44 54 50 42 43 53 61 61 58 50 49 49 55 63 68 70 66 59 58 56 43 30 43 57 36 20 19 46 50 71 65 61
56 58 51 50 55 61 65 68 66 68 67 76 78 72 67 59 60 54 38 24 24 21 17 12 10 11 30 76 47 97 93 76
59 46 48 55 62 68 75 76 80 88 75 54 48 51 55 53 37 20 16 15 12 9 7 5 4 12 80 39 92 88 94 89
55 52 54 63 70 75 87 92 95 72 65 46 41 37 21 11 12 14 10 7 5 4 3 4 84 72 98 100 96 92 88 65
55 54 60 64 75 86 92 91 78 76 55 37 17 14 15 14 9 7 5 5 4 5 5 60 90 98 94 92 83 74 55 51
54 60 69 75 85 95 98 96 86 76 32 18 18 14 10 8 6 6 5 5 6 6 6 9 50 74 67 75 73 59 43 15
59 69 82 98 98 97 93 95 94 36 22 18 14 10 8 7 6 6 6 6 7 10 16 27 43 71 86 83 71 41 3 4
66 80 93 99 97 94 98 86 28 25 21 16 11 8 7 7 6 6 7 8 12 23 30 44 69 86 81 70 49 11 8 10
76 84 95 90 86 97 72 38 30 23 16 12 9 8 8 7 7 8 9 13 17 28 40 55 89 84 72 81 45 20 15 19
84 89 88 88 97 90 70 44 24 16 13 10 8 8 8 8 9 10 11 14 22 38 52 71 72 83 100 79 60 33 20 24
88 97 97 96 86 79 58 31 17 14 12 10 9 9 9 10 12 12 14 25 37 56 69 91 93 100 91 87 74 36 22 26
93 97 79 74 77 70 41 20 16 14 11 10 11 11 12 13 13 15 22 42 59 74 91 99 92 91 91 95 59 26 22 26
82 73 76 80 77 46 22 19 17 14 13 12 13 14 13 14 16 27 41 54 66 82 89 93 92 96 94 57 25 20 27 31

GFSFLT1_700_rhum_003.txt.gz
RH
47 46 56 63 66 78 86 98 99 90 82 75 66 60 65 75 80 78 84 82 75 65 58 48 48 46 43 39 41 36 30 29
46 48 54 59 68 84 96 86 78 80 61 55 56 56 50 56 61 64 64 55 48 47 52 55 53 46 40 35 21 18 36 33
45 44 55 67 82 85 64 43 43 48 51 55 58 69 61 56 54 52 48 45 44 43 42 44 44 47 45 38 34 23 35 28
49 48 56 44 42 38 36 43 46 54 59 63 59 54 51 48 44 44 52 49 42 42 46 47 46 42 26 17 18 18 17 15
43 27 33 44 43 41 41 45 50 62 64 55 49 51 53 54 55 58 54 44 41 38 30 21 17 16 17 14 13 17 23 19
31 42 47 53 51 45 48 58 62 62 60 57 55 56 54 47 45 45 44 33 18 11 12 15 16 14 11 9 9 12 39 69
46 48 59 48 46 48 52 58 68 73 74 82 72 62 51 46 44 29 15 12 14 14 11 7 5 4 5 16 38 52 74 50
48 58 59 52 50 56 62 68 77 83 87 86 69 61 52 36 17 13 12 9 7 6 5 4 4 5 10 25 100 66 71 67
53 61 49 52 54 59 72 80 90 92 92 78 75 72 42 21 16 11 7 7 6 5 4 5 5 7 11 52 83 95 81 69
58 57 54 54 58 70 83 92 94 96 98 85 83 55 24 21 10 7 6 6 4 4 4 5 6 16 17 98 71 41 63 71
61 56 53 54 65 80 87 92 98 98 89 85 44 30 19 10 8 7 6 5 4 5 6 8 15 22 37 44 54 73 74 72
59 54 54 62 77 89 92 99 96 89 96 63 31 17 11 9 8 7 6 5 6 6 8 13 24 39 49 65 87 80 69 45
58 54 57 71 92 98 99 94 87 96 64 35 18 13 11 10 9 8 7 7 7 8 12 22 37 50 72 98 91 83 61 41
55 53 60 86 99 99 95 87 96 63 42 22 15 12 11 10 9 8 8 8 9 11 17 30 50 69 92 96 77 76 68 45
54 59 72 97 97 93 96 86 69 57 31 16 14 13 12 11 10 9 9 10 12 15 30 50 72 95 90 89 89 79 78 53
61 71 88 96 94 91 71 74 73 43 19 16 15 14 13 12 10 10 11 14 19 24 46 68 80 95 97 90 87 90 69 33
73 82 94 94 79 75 78 80 59 25 19 17 17 16 14 12 11 12 15 21 29 39 60 70 87 100 100 90 99 83 50 18
81 88 97 85 83 86 87 73 31 22 19 19 19 17 14 13 13 16 19 28 40 53 69 78 88 92 95 100 94 49 22 21
85 96 91 93 94 94 85 42 24 22 22 22 19 16 14 13 16 19 24 38 48 60 66 70 79 66 53 44 32 28 28 28

GFSFLT1_700_rhum_006.txt.gz
RH
52 52 55 66 71 76 80 87 92 79 60 63 62 59 72 53 41 42 44 47 50 51 50 50 51 52 52 45 36 30 21 12
50 50 53 61 68 72 82 83 55 34 48 48 49 45 40 42 49 54 55 55 54 55 51 42 37 35 31 28 28 25 18 15
49 53 53 58 66 83 69 35 32 38 41 42 44 48 57 62 63 60 57 49 46 44 38 34 27 21 15 10 11 12 13 8
40 45 52 71 68 44 40 38 41 41 39 42 52 56 56 58 56 50 44 41 38 33 24 16 11 10 10 10 8 5 4 4
49 46 43 40 42 48 43 46 52 54 57 58 63 64 65 61 58 53 45 33 21 16 14 12 9 7 6 5 4 4 3 4
40 34 42 49 48 45 47 50 53 64 68 69 70 75 75 68 67 58 29 21 19 13 9 7 6 5 4 4 4 4 6 12
31 41 55 59 51 46 54 61 62 69 75 78 80 82 77 78 73 40 28 21 12 9 7 5 4 4 4 5 6 22 59 100
43 48 57 57 48 51 55 64 70 75 82 85 86 90 87 72 43 34 22 13 10 7 6 5 4 5 6 10 65 82 55 96
48 53 61 51 52 56 61 72 80 85 92 94 95 95 88 66 40 19 12 10 8 7 5 5 5 5 6 48 100 36 28 43
51 55 62 55 57 64 74 81 82 84 97 98 85 90 76 43 19 12 11 10 8 7 6 6 6 7 27 80 71 40 49 73
54 59 62 59 64 72 83 87 90 93 100 96 85 74 50 19 14 13 13 11 8 7 6 6 7 31 36 36 50 84 79 97
56 60 63 62 66 79 87 92 93 98 98 94 75 54 26 17 16 15 13 10 8 7 8 9 11 18 33 79 72 95 100 100
58 61 64 67 74 83 89 94 100 98 97 66 56 37 23 18 17 15 13 10 8 8 10 12 16 28 57 63 89 100 100 100
60 61 61 65 78 89 99 100 99 96 71 69 55 29 20 19 18 16 12 9 9 11 13 17 28 42 57 93 100 96 85 86
62 61 60 66 82 98 99 97 92 74 78 70 38 23 20 19 19 16 11 10 11 13 18 26 43 51 69 97 97 96 89 91
58 60 61 69 84 93 94 93 77 82 82 50 27 21 21 21 20 14 10 11 14 16 25 37 51 68 78 100 100 100 86 90
56 58 61 72 87 95 95 85 86 90 67 34 22 23 22 23 18 12 11 14 16 22 38 93 64 70 81 87 89 85 58 33
59 64 73 85 92 97 95 88 93 82 42 23 24 23 24 23 13 11 13 17 21 32 51 84 77 69 47 28 21 28 35 36
34 68 84 90 97 97 95 94 92 55 29 32 27 25 26 16 9 12 17 21 30 40 60 67 60 41 26 27 28 25 30 37

GFSFLT1_700_rhum_009.txt.gz
RH
57 59 61 61 61 63 69 73 77 97 68 39 44 50 56 54 43 36 36 37 42 48 49 44 50 53 44 29 22 17 14 12
59 63 64 64 64 70 75 80 85 62 32 42 48 45 39 35 36 41 44 47 46 44 45 43 36 25 21 18 16 13 10 8
54 58 66 70 70 76 80 81 48 32 36 38 39 38 40 45 49 55 55 55 54 50 39 29 22 19 17 13 10 9 7 5
44 55 64 66 69 76 79 41 37 38 39 43 49 56 61 60 65 64 64 64 65 45 28 25 22 17 13 10 7 5 4 4
34 42 45 56 75 57 45 42 46 49 55 58 63 72 78 72 76 73 76 64 44 34 27 20 18 14 10 7 5 5 4 4
50 71 54 58 45 45 44 50 54 56 61 65 67 72 74 76 78 80 81 60 41 27 22 18 15 12 8 6 5 4 4 5
80 64 41 39 51 49 45 50 57 62 65 68 75 80 82 86 88 87 69 48 32 24 20 16 12 8 6 5 5 5 6 48
52 39 33 45 53 51 50 53 58 62 65 69 79 82 88 86 78 59 52 37 26 21 17 12 8 6 5 5 5 8 70 100
49 33 41 52 53 49 52 53 57 62 67 68 79 91 96 93 61 55 40 27 22 19 14 9 6 5 5 17 73 82 98 98
42 42 47 50 55 53 54 58 62 66 70 80 90 99 100 80 55 47 30 22 20 16 10 6 6 6 46 78 42 61 99 93
48 47 48 53 59 58 60 65 69 72 77 84 92 100 88 60 58 37 23 21 18 13 7 6 6 9 16 65 97 92 99 100
63 55 52 55 61 62 69 75 75 80 84 90 99 94 69 66 49 28 23 20 16 8 6 7 8 15 78 94 94 76 100 97
86 62 54 56 60 63 70 75 83 88 90 94 97 71 73 57 35 25 23 20 12 6 6 8 12 31 42 58 98 94 96 99
88 60 54 57 59 63 70 82 92 96 97 99 81 79 73 47 28 25 22 17 8 6 8 11 32 28 58 97 96 100 99 98
86 61 55 59 62 66 74 86 95 100 98 96 83 86 60 34 27 25 22 11 7 7 9 14 18 58 75 100 100 100 99 100
60 58 58 61 65 69 76 85 98 99 98 89 89 79 44 30 30 24 15 7 7 10 17 18 63 88 95 70 67 78 88 60
41 47 60 63 65 72 78 84 96 98 99 91 93 61 34 34 26 21 8 7 10 15 51 59 79 88 68 78 37 22 21 28
40 47 53 59 64 70 80 90 94 97 97 96 77 74 61 28 24 10 8 11 16 43 75 80 69 74 64 56 46 36 30 26
36 36 33 44 68 75 89 92 93 98 98 96 95 80 34 27 13 8 12 22 70 89 86 87 82 61 62 71 66 40 26 25

GFSFLT1_700_rhum_012.txt.gz
RH
59 50 58 51 49 55 61 64 70 76 88 48 34 36 42 42 44 40 35 34 37 40 44 47 49 46 38 32 27 25 24 24
68 58 63 68 50 54 66 70 76 83 68 32 34 36 35 34 36 41 45 54 52 53 53 53 48 38 33 28 26 24 22 20
66 68 73 61 56 58 62 70 79 76 46 35 37 37 41 45 45 49 53 59 63 65 66 52 41 37 30 28 25 21 19 16
64 59 63 72 85 86 77 69 74 44 37 38 40 46 54 55 54 56 55 51 63 65 56 45 38 33 29 25 21 18 14 11
62 39 49 61 65 75 82 94 51 40 42 44 53 51 51 58 64 71 62 70 74 58 51 40 33 28 24 20 15 11 8 6
67 42 35 43 50 73 98 63 42 47 47 52 51 52 60 63 70 77 73 65 54 50 43 36 30 25 20 15 9 7 5 5
86 62 58 57 73 72 52 45 46 49 50 49 55 61 63 68 76 81 90 74 51 47 40 33 26 21 15 8 6 5 6 13
93 95 94 98 64 40 47 49 49 50 48 51 56 61 67 74 86 88 99 70 52 45 37 29 23 17 9 5 4 6 20 41
92 97 90 66 39 46 52 50 50 50 51 55 59 63 71 77 88 98 92 58 49 41 32 27 21 11 6 4 4 10 30 63
82 86 64 47 36 46 53 51 52 53 54 57 62 68 74 85 98 96 60 56 48 35 29 23 12 6 4 4 7 21 34 55
81 85 70 44 38 46 52 57 56 56 58 62 68 75 83 93 98 71 64 55 41 32 27 16 6 5 5 7 8 20 39 51
70 70 68 54 48 48 51 59 60 61 63 72 78 84 92 99 94 75 64 49 33 30 21 7 5 6 8 10 15 29 59 81
72 71 75 74 56 53 54 57 60 62 67 78 88 94 98 98 88 75 62 41 35 26 10 6 5 8 10 15 29 36 84 83
74 77 83 76 65 63 58 59 63 64 74 83 96 99 100 98 93 66 40 37 30 16 6 6 7 12 15 28 55 56 68 93
70 72 81 85 79 67 62 66 69 75 81 100 99 100 100 96 88 37 55 61 22 7 6 8 14 18 42 58 76 80 74 62
63 71 80 88 89 79 76 76 77 84 95 100 99 99 98 98 81 50 94 58 10 7 8 17 32 42 64 69 81 80 75 38
54 68 78 86 88 83 70 78 82 84 100 100 99 98 98 93 78 93 44 11 8 10 16 36 54 50 57 55 75 71 57 56
30 51 64 62 62 64 66 73 83 82 100 100 98 100 100 96 94 63 50 11 20 13 26 53 70 67 50 52 67 72 77 62
38 36 37 39 42 47 67 70 79 86 100 99 99 97 94 95 90 61 21 55 15 18 36 73 71 68 72 67 83 76 74 41